Simultaneous Nadir Overpasses (SNOs) Predictions

Prediction of SNOs between NOAA-19 and NPP Satellite Orbit:

Table of predicted SNOs for the next 14.0 days since TLE Epoch: 9/25/2016
Index Date (NOAA-19) Time (NOAA-19) Lat,Lon (NOAA-19) SZA (NOAA-19 ) Date (NPP) Time (NPP) Lat,Lon (NPP) SZA (NPP ) Distance(km) Time Diff (sec)
1 10/05/2016 16:13:37 -80.96, 64.09 90.85 10/05/2016 16:14:40 -80.97, 63.91 90.85 3.17 63
2 10/05/2016 17:04:38 80.96,-128.71 89.18 10/05/2016 17:05:25 80.96,-128.69 89.15 0.65 47
3 10/05/2016 17:55:39 -80.96, 38.54 90.82 10/05/2016 17:56:10 -80.97, 38.52 90.82 1.07 31
4 10/05/2016 18:46:40 80.96,-154.25 89.21 10/05/2016 18:46:55 80.96,-154.08 89.18 2.98 15
5 10/05/2016 19:37:40 -80.96, 13.38 90.83 10/05/2016 19:37:39 -80.95, 13.50 90.85 2.48 1
6 10/05/2016
